Location: Wingville
(42.9917°N, 90.4915°W)
Time: 07:02:35
(UTC+00:00)

YUBILEINY - Pass Details

Date: 08 July 2022
Orbit: 1478 x 1509 km, 82.5° (Epoch: 07 August)

Event Time Altitude Azimuth Distance (km) Brightness Sun altitude
Rises 07:49:38 0° 359° (N) 4,646 ? -20.4°
Reaches altitude 10° 07:53:31 10° 14° (NNE) 3,656 ? -20.1°
Maximum altitude 08:00:00 22° 62° (ENE) 2,807 ? -19.6°
Drops below altitude 10° 08:06:24 10° 110° (ESE) 3,626 ? -19.0°
Sets 08:10:11 0° 125° (SE) 4,598 ? -18.7°
